STARLINK-4422, 53639

Orbit data source: Space-Track

STARLINK-4422, 53639 is a payload satellite owned by SpaceX/Seattle (US) in LEO that was launched on Sun, 28 Aug 2022 UTC via an FALCON 9 launch vehicle from the Air Force Eastern Test Range (AFETR). Payload-class satellites include a variety of spacecraft equipped with specific instruments for various scientific and technological missions. These include communications satellites like Starlink; space stations such as the ISS; scientific satellites like the Hubble; Earth observation satellites from companies like Planet Labs, Umbra, and HawkEye 360; GPS; miniature CubeSats for education and research; and military/defense satellites.

Loading next visibility...
Identifier
53639, 2022-104BD
Orbit
LEO
Country
Flag of USUS
Related business
Manufacturer
SpaceX/Seattle
Mission
Operational Commercial Communications
Bus & Motor
STARLINK, Unknown motor
Mass
300 kg wet, ~290 kg dry
Launch date (UTC)
2022-08-28 (3 years ago)
Launch vehicle
FALCON 9
Launch site
Air Force Eastern Test Range (AFETR)
Object type
Payload
Rocket body
Debris
Shape & HBR
Box + 1 Pan, 10.1 m
Radar Cross Section
13.562 m², Large (>1 m²)

Expand to show TLE details & history
Last TLE update: 17 hours ago

TLE from 17 hours ago
0 STARLINK-4422
1 53639U 22104BD  25347.14946397  .00000852  00000-0  71613-4 0  9996
2 53639  53.2169 252.4009 0001456  94.8610 265.2548 15.08841169182994
Epoch: 2025-12-13T03:35Z
TLE epoch observation values (Epoch: 2025-12-13T03:35:13.687Z)
Latitude
-0.00003°
Longitude
116.51297°
Altitude
540.721 km
Speed
7.593 km/s
True Right ascension
16h 49m 36s
True Declination
0° 00' 00"
Sunlit
Object was in daylight at epoch
Visualization orbit readout
Latitude
Unknown
Longitude
Unknown
Altitude
Unknown
Speed
Unknown
Apparent Right ascension
Unknown
Apparent Declination
Unknown
Sunlit
N/A
Visualization observer readout
Local Sidereal Time
19:02:12
Azimuth
Unknown
Elevation
Unknown
Doppler factor
Unknown
Orbital elements
Apogee altitude
540.992 km
Perigee altitude
538.978 km
Semi-major axis
6,918.122 km
Eccentricity
0.00015
Inclination
53.2169°
RAAN
252.4009°
Arg. of periapsis
94.861°
True anomaly
265.23817°
Mean anomaly
265.2548°
Eccentric anomaly
265.24649°
Mean motion
3.77191 °/min
Orbital period
95.44 mins
BSTAR
0.000071613
Loading maneuver chart data...
Computing Atmospheric mass density...
Loading historical data...
Loading historical data...
Loading historical data...
Loading historical data...
Loading historical data...
Loading historical data...
Loading historical data...

Documentation

Showing up to 5 results
|